User: anonymous   Login
Location: Unspecified
(0.0000°N, 0.0000°E)
Time: 00:14:15
(UTC+00:00)
Language:

AMOS 1 - Orbit

View from above orbital plane
View from above orbital plane
View from above satellite
View from above satellite

Ground track
Ground track

The orbit data is extracted from the following two-line orbital elements,

1 23865U 96030B   17053.24349362 -.00000124  00000-0  00000+0 0  9998
2 23865   6.8702  54.8876 0006876 145.8319 236.1887  0.97117962 75532
Epoch (UTC): 22 February 2017 05:50:37
Eccentricity: 0.0006876
inclination: 6.8702°
perigee height: 36664 km
apogee height: 36724 km
right ascension of ascending node: 54.8876°
argument of perigee: 145.8319°
revolutions per day: 0.97117962
mean anomaly at epoch: 236.1887°
orbit number at epoch: 7553

The dashed part of the orbit path shows where the satellite is in the earth's shadow,  

DLR